Regional Weather Roundup
Issued by NWS Charleston, SC

Current Version | Previous Version | Graphics & Text | Print | Product List | Glossary On
Versions: 1 2 3 4 5 6 7 8 9 10 11 12 13 14 15 16 17 18 19 20 21 22 23 24 25 26 27 28 29 30 31 32 33 34 35 36 37 38 39 40 41 42 43 44 45 46 47 48 49 50
940 ASUS42 KCHS 250113 RWRCHS REGIONAL WEATHER ROUNDUP NATIONAL WEATHER SERVICE CHARLESTON SC 900 PM EDT TUE MAY 24 2016 NOTE: "FAIR" INDICATES FEW OR NO CLOUDS BELOW 12,000 FEET WITH NO SIGNIFICANT WEATHER AND/OR OBSTRUCTIONS TO VISIBILITY. NOT ALL STATIONS ARE QUALITY CONTROLLED. USE DATA WITH CAUTION... ESPECIALLY DEWPOINT OBSERVATIONS. SCZ027-030-031-034>040-042>050-250200- ...SOUTHEAST SOUTH CAROLINA... CITY SKY/WX TMP DP RH WIND PRES REMARKS N CHARLESTON PTCLDY 71 60 68 S7 30.15R WATERFRONT PRK N/A 74 64 70 S7 30.12R MOUNT PLEASANT FAIR 70 63 78 CALM 30.16R JOHNS ISLAND FAIR 72 64 78 S7 30.16R PINOPOLIS N/A 77 63 61 CALM 30.06R MONCKS CORNER FAIR 68 57 68 S3 30.15R SUMMERVILLE FAIR 72 63 73 SE3 30.16R BEAUFORT MCAS CLEAR 74 65 73 S5 30.15R BEAUFORT ARPT FAIR 72 63 73 S5 30.15R HILTON HEAD IS CLEAR 73 66 78 S6 30.16R WALTERBORO CLEAR 73 63 68 S5 30.16R ALLENDALE FAIR 77 64 65 S6 30.13R ...SOUTHERN MIDLANDS AND PEE DEE... CITY SKY/WX TMP DP RH WIND PRES REMARKS GEORGETOWN FAIR 64 55 72 SW3 30.16R KINGSTREE FAIR 70 59 68 CALM 30.14R ORANGEBURG CLEAR 74 62 66 S7 30.13R BARNWELL FAIR 77 63 61 CALM 30.13R AIKEN FAIR 70 54 56 S3 30.17R MANNING FAIR 70 61 73 S5 30.14R COLUMBIA PTCLDY 80 57 45 E3 30.11R SUMTER CLEAR 74 61 62 CALM 30.11R FLORENCE CLEAR 73 58 59 CALM 30.13R MYRTLE BEACH CLEAR 73 54 49 MISG 30.16R N MYRTLE BEACH CLEAR 72 58 61 SW13 30.14R $$ GAZ063-065-086>088-099>101-113>116-118-119-134>141-150-250200- ...SOUTHEAST GEORGIA... CITY SKY/WX TMP DP RH WIND PRES REMARKS SAVANNAH ARPT MOCLDY 75 64 68 SE9 30.15R HUNTER AAF CLEAR 74 67 79 SE5 30.13R FORT STEWART CLOUDY 75 63 66 SE3 30.12R STATESBORO PTCLDY 77 68 73 SE5 30.13R SYLVANIA PTCLDY 78 67 69 CALM 30.14S CLAXTON FAIR 75 66 73 CALM 30.13R ...CSRA...CENTRAL AND FAR SOUTHEAST GEORGIA... CITY SKY/WX TMP DP RH WIND PRES REMARKS THOMSON CLEAR 73 64 75 CALM 30.17R AUGUSTA-BUSH PTCLDY 72 64 76 CALM 30.11R AUGUSTA-DANIEL CLEAR 80 56 43 E3 30.13R SWAINSBORO FAIR 73 59 60 CALM 30.14R VIDALIA CLOUDY 77 59 53 CALM 30.13R EASTMAN FAIR 71 58 63 CALM 30.15R HAZLEHURST FAIR 76 61 59 CALM 30.12R ALMA PTCLDY 77 60 55 SE7 30.13R WAYCROSS CLOUDY 78 59 52 SE8 30.13R JESUP FAIR 70 61 73 CALM 30.15R BAXLEY FAIR 79 61 53 S6 30.13R BRUNSWICK PTCLDY 81 70 69 SE3 30.16R SAINT SIMONS CLOUDY 76 67 73 SE7 30.15R $$ SCZ027-028-034-036>038-045-046-048>050-GAZ119-141-250200- ...LAKE AND SUPPLEMENTAL COASTAL OBSERVATIONS... STATION/POSITION TIME TEMP WIND PRES WAVE SWELL AIR SEA DIR/SP/G HT/PER HT/PER/DIR (UTC) (F) (DEG/KT/KT) (MB) (FT/S) (FT/S/D) WINYAH BAY NOT AVBL LAKE MURRAY 0000 80 310/ 3/ 4 1019.0R ACE BASIN NERRS NOT AVBL FORT PULASKI 0000 75 1021.0R SAPELO ISLAND 0000 77 150/ 6 1020.0S $$ ANZ835-935-AMZ111-154-330-350-352-354-370-450-454-472-250200- ...C-MAN AND BUOY OBSERVATIONS... STATION/POSITION TIME TEMP WIND PRES WAVE SWELL AIR SEA DIR/SP/G HT/PER HT/PER/DIR (UTC) (F) (DEG/KT/KT) (MB) (FT/S) (FT/S/D) BUOY 41004 0050 76 76 170/ 10/ 12 1020.7R 2/ 8 2/ 8 BUOY 41008 0050 77 76 140/ 12/ 14 1020.7R 2/ 9 2/ 90/ 9 FOLLY BEACH CMAN 0100 74 170/ 10/ 12 1021.3R CAPERS NEARSHORE 0008 74 75 180/ 12/ 16 1020.4R FRIPP NEARSHORE 0008 75 76 160/ 12/ 14 1020.0R STATION/POSITION TIME TEMP WIND PRES WAVE SWELL AIR SEA DIR/SP/G HT/PER HT/PER/DIR (UTC) (F) (DEG/KT/KT) (MB) (FT/S) (FT/S/D) 5E ST. MARYS GA 0021 78 N/A 2/ 8 FRYING PAN BUOY 0000 74 77 190/ 12/ 14 1020.1R BUOY 41025 0050 73 79 230/ 19/ 23 1019.3R 4/ 4 2/ 70/ 9 CAPE LOOKOUT NC 0000 70 220/ 9/ 12 1019.6R BUOY 41002 0050 73 78 20/ 4/ 8 1021.2R 4/ 9 5/ 70/ 9 BUOY 41010 0020 78 78 70/ 10/ 12 1021.2R ST AUGUSTINE FL 0100 78 81 130/ 14/ 16 1021.7R $$

USA.gov is the U.S. government's official web portal to all federal, state and local government web resources and services.